Home > Weather > Achern > Past weeks

Flag for Germany Past Weather in Achern, Baden-Württemberg, Germany — Yesterday and Last 2 Weeks

Now
79 °F

Sunny.


Feels Like: 81 °F
Forecast: 63 / 91 °F
Wind: 2 mph from North

Location: Karlsruhe - Baden Wurttemberg

Current Time: Aug 26, 2016 at 10:01:09 PM

Latest Report: Aug 26, 2016 at 8:50 PM


Visibility: 10 mi

Pressure: 30.01 "Hg

Humidity: 74%

Dew Point: 70 °F

Location of AchernLocation

Past Weather in Achern — Graph

°F

Achern Temperature Yesterday

Maximum temperature yesterday: 88 °F (at 4:20 PM)
Minimum temperature yesterday: 55 °F (at 5:50 AM)
Average temperature yesterday: 75 °F

High & Low Weather Summary for the Past Weeks

 TemperatureHumidityPressure
High95 °F (Aug 26, 4:20 PM)100% (Aug 13, 4:50 AM)30.39 "Hg (Aug 13, 4:50 AM)
Low54 °F (Aug 22, 4:50 AM)30% (Aug 26, 4:50 PM)29.80 "Hg (Aug 18, 6:20 AM)
Average70 °F71%30.09 "Hg
* Reported Aug 11 8:20 PM — Aug 26 8:50 PM, Achern, Weather by CustomWeather, © 2016

Note: Actual official high and low records may vary slightly from our data, if they occured in-between our weather recording intervals... More about our weather records

Advertising

Achern Weather History for the Previous 24 Hours

Scroll right to see more
 ConditionsComfort  
Time TempWeatherWind HumidityBarometerVisibility
8:50 PM
Fri, Aug 26
79 °FSunny.2 mph74%30.01 "Hg10 mi
8:20 PM82 °FSunny.2 mph62%30.01 "Hg10 mi
7:50 PM88 °FSunny.1 mph52%30.01 "Hg10 mi
7:20 PM91 °FSunny.2 mph46%30.01 "Hg10 mi
6:50 PM93 °FPassing clouds.5 mph32%30.01 "HgN/A
6:20 PM95 °FSunny.2 mph30%30.01 "Hg10 mi
5:50 PM95 °FSunny.3 mph30%30.01 "Hg10 mi
5:20 PM95 °FSunny.3 mph32%30.01 "Hg10 mi
4:50 PM95 °FSunny.3 mph30%30.01 "Hg10 mi
4:20 PM95 °FPassing clouds.6 mph32%30.01 "HgN/A
3:50 PM93 °FPassing clouds.5 mph36%30.04 "HgN/A
3:20 PM91 °FClear.6 mph41%30.04 "Hg6 mi
2:50 PM91 °FPassing clouds.6 mph41%30.04 "HgN/A
2:20 PM91 °FSunny.3 mph38%30.04 "Hg10 mi
1:50 PM91 °FPassing clouds.6 mph38%30.04 "HgN/A
1:20 PM90 °FPassing clouds.7 mph43%30.04 "HgN/A
12:50 PM88 °FSunny.3 mph52%30.04 "Hg10 mi
12:20 PM86 °FPassing clouds.7 mph52%30.04 "HgN/A
11:50 AM84 °FPassing clouds.5 mph55%30.07 "HgN/A
11:20 AM82 °FPassing clouds.7 mph58%30.07 "HgN/A
10:50 AM81 °FPassing clouds.5 mph62%30.04 "HgN/A
10:20 AM77 °FPassing clouds.7 mph69%30.04 "HgN/A
9:50 AM75 °FPassing clouds.5 mph74%30.04 "HgN/A
9:20 AM72 °FSunny.3 mph78%30.04 "Hg10 mi
8:50 AM70 °FSunny.2 mph83%30.04 "Hg10 mi
8:20 AM70 °FSunny.1 mph83%30.04 "Hg10 mi
7:50 AM66 °FSunny.1 mph94%30.04 "Hg10 mi
7:20 AM63 °FFog.No wind100%30.04 "HgN/A
6:50 AM63 °FFog.1 mph94%30.04 "HgN/A
6:20 AM63 °FFog.2 mph94%30.04 "HgN/A
5:50 AM63 °FClear.1 mph100%30.01 "Hg10 mi
5:20 AM64 °FClear.2 mph94%30.01 "Hg10 mi
4:50 AM63 °FClear.2 mph100%30.01 "Hg10 mi
11:20 PM
Thu, Aug 25
68 °FPassing clouds.5 mph94%29.98 "HgN/A
10:50 PM70 °FClear.1 mph88%29.98 "Hg10 mi
10:20 PM72 °FClear.2 mph88%29.98 "Hg10 mi
Weather by CustomWeather, © 2016

See weather overviewHow to use our weather pages